Location: Unspecified
(22.6800°N, 112.2000°E)
Time: 12:03:03
(UTC+08:00)

Tiros 1 despin weight - Pass Details

Date: 05 August 2021
Orbit: 593 x 641 km, 48.2° (Epoch: 26 September)

Event Time Altitude Azimuth Distance (km) Brightness Sun altitude
Rises 20:20:34 0° 302° (WNW) 2,923 ? -15.9°
Reaches altitude 10° 20:23:07 10° 291° (WNW) 2,007 ? -16.4°
Maximum altitude 20:27:08 30° 231° (SW) 1,132 ? -17.2°
Enters shadow 20:30:13 15° 177° (S) 1,695 ? -17.8°
